TimeMST,TemperatureF,Dew PointF,Humidity,Sea Level PressureIn,VisibilityMPH,Wind Direction,Wind SpeedMPH,Gust SpeedMPH,PrecipitationIn,Events,Conditions,WindDirDegrees,DateUTC
12:58 AM,67.3,37.8,34,29.81,10.0,SE,8.1,-,N/A,,Clear,140,2013-10-03 07:58:00
1:58 AM,67.3,42.4,40,29.81,10.0,South,6.9,-,N/A,,Clear,170,2013-10-03 08:58:00
2:58 AM,66.6,44.8,45,29.79,10.0,SSE,6.9,-,N/A,,Clear,150,2013-10-03 09:58:00
3:58 AM,64.4,45.1,50,29.81,10.0,ESE,8.1,-,N/A,,Clear,120,2013-10-03 10:58:00
4:58 AM,64.8,46.9,52,29.81,10.0,ESE,5.8,-,N/A,,Clear,120,2013-10-03 11:58:00
5:58 AM,64.0,45.0,50,29.82,10.0,East,6.9,-,N/A,,Clear,100,2013-10-03 12:58:00
6:58 AM,63.9,43.7,48,29.82,10.0,SE,6.9,-,N/A,,Clear,140,2013-10-03 13:58:00
7:58 AM,70.5,47.3,44,29.83,10.0,SE,8.1,-,N/A,,Clear,130,2013-10-03 14:58:00
8:58 AM,74.8,48.0,39,29.83,10.0,SSE,5.8,-,N/A,,Clear,150,2013-10-03 15:58:00
9:58 AM,79.7,49.3,34,29.81,10.0,SSE,6.9,-,N/A,,Clear,160,2013-10-03 16:58:00
10:58 AM,81.9,47.8,30,29.79,10.0,Variable,6.9,-,N/A,,Clear,0,2013-10-03 17:58:00
11:58 AM,84.4,47.5,28,29.76,10.0,SSE,5.8,-,N/A,,Clear,160,2013-10-03 18:58:00
12:58 PM,86.4,47.1,26,29.72,10.0,ESE,5.8,-,N/A,,Clear,110,2013-10-03 19:58:00
1:58 PM,88.9,38.8,17,29.69,10.0,South,11.5,-,N/A,,Clear,190,2013-10-03 20:58:00
2:58 PM,89.4,38.3,17,29.67,10.0,West,15.0,18.4,N/A,,Clear,260,2013-10-03 21:58:00
3:18 PM,89.6,33.8,14,29.78,10.0,West,17.3,-,N/A,,Clear,270,2013-10-03 22:18:00
3:58 PM,90.5,34.0,13,29.66,10.0,West,11.5,21.9,N/A,,Clear,260,2013-10-03 22:58:00
4:58 PM,88.7,26.1,10,29.66,10.0,West,16.1,20.7,N/A,,Clear,270,2013-10-03 23:58:00
5:58 PM,85.6,24.4,11,29.68,10.0,West,11.5,19.6,N/A,,Clear,260,2013-10-04 00:58:00
6:58 PM,82.4,35.2,18,29.70,10.0,West,9.2,-,N/A,,Clear,260,2013-10-04 01:58:00
7:58 PM,80.4,35.2,20,29.72,10.0,WSW,9.2,-,N/A,,Clear,250,2013-10-04 02:58:00
9:58 PM,72.1,34.9,26,29.74,10.0,SSE,5.8,-,N/A,,Clear,160,2013-10-04 04:58:00
10:58 PM,69.4,35.2,28,29.75,10.0,South,5.8,-,N/A,,Clear,180,2013-10-04 05:58:00
11:58 PM,69.4,42.8,38,29.76,10.0,SSW,6.9,-,N/A,,Clear,210,2013-10-04 06:58:00